SCP
0 0 0 0 0 0 0 0 0 0 0 0 0 0 0 0 0 0 0 1 1 1 0 0 1 1 1 0 0 0 0 0 0 0 0 0 0 0 0 0 0 0 0
1 0 0 0 0 0 0 0 0 0 0 0 0 0 0 0 0 0 0 0 1 1 0 0 0 1 1 0 0 1 0 0 0 0 0 0 0 0 0 0 0 0 0
1 1 0 0 0 0 0 0 0 0 0 0 0 0 0 0 0 0 0 0 1 0 0 0 0 0 1 0 0 0 0 0 0 0 0 0 0 0 0 0 0 0 0
1 1 0 0 0 0 0 0 0 0 0 0 1 1 1 1 0 1 1 1 0 1 1 0 1 1 0 0 0 0 0 0 0 0 0 0 0 0 0 0 0 0 0
1 1 1 0 1 0 0 0 1 0 1 1 1 1 1 1 1 1 1 1 1 1 2 1 1 1 1 0 0 0 0 0 0 0 0 0 0 0 0 0 0 0 0
1 1 1 1 1 0 0 0 2 1 1 1 1 1 2 2 1 1 1 1 1 2 1 2 2 1 0 1 0 0 1 0 0 0 0 0 0 0 0 0 0 0 0
1 1 1 1 0 0 0 0 2 3 1 2 2 1 1 4 3 2 1 1 1 3 2 2 1 1 1 1 0 0 0 0 0 0 0 0 0 0 0 0 0 0 0
1 1 1 0 0 0 0 0 5 2 2 2 2 1 1 2 5 3 1 1 2 1 1 2 1 1 1 1 0 1 0 0 0 0 0 0 0 0 0 0 0 0 0
1 1 0 0 0 0 1 2 3 3 2 2 2 1 1 1 2 4 3 1 2 1 0 1 1 1 1 0 1 1 0 0 0 0 0 0 0 0 0 0 0 0 0
-0 -1 0 0 1 1 0 3 3 3 4 2 3 3 2 3 3 3 3 2 1 1 2 1 1 1 1 0 0 1 0 0 0 0 0 0 -0 0 0 0 0 0 0
2 -0 1 -0 0 1 1 3 3 3 4 2 2 3 3 2 4 3 3 3 1 0 1 2 1 0 1 0 1 0 0 0 0 0 0 0 0 0 0 0 0 0 0
1 -0 -1 1 1 1 0 3 5 4 4 4 2 4 3 3 2 2 2 1 1 2 1 2 1 0 1 1 0 0 0 0 0 0 0 0 0 0 0 0 0 0 0
1 0 0 6 0 1 1 3 5 6 6 4 6 4 3 4 3 2 3 1 1 1 1 1 1 1 1 1 1 0 0 0 0 0 0 0 0 0 0 0 0 0 0
1 2 1 3 -0 2 3 3 5 5 6 5 5 4 5 3 3 3 2 1 0 0 1 1 1 0 1 1 0 0 0 0 0 0 0 0 0 -0 -0 0 0 0 0
0 2 2 4 3 3 3 6 6 6 7 8 4 4 4 4 3 3 1 0 0 0 1 2 1 1 1 1 0 0 0 0 0 0 0 0 -0 -0 -0 0 0 0 0
2 2 3 3 5 3 5 6 7 8 7 6 4 5 5 3 5 3 1 0 0 0 0 1 1 1 0 0 0 0 0 0 0 0 0 0 0 -0 0 0 0 0 0
1 1 2 4 5 4 7 7 8 7 6 5 4 5 4 4 4 2 1 0 0 0 0 2 1 1 0 0 0 0 0 0 0 0 0 -0 0 0 0 0 0 0 0
1 1 2 1 5 5 7 6 5 5 5 5 4 4 2 2 3 2 1 2 1 1 0 1 1 0 0 0 0 0 0 0 0 0 0 0 0 0 0 0 0 0 0
1 1 2 2 3 5 6 5 4 6 6 4 3 3 2 3 3 1 1 1 1 1 1 0 1 0 0 0 0 0 0 0 0 0 0 0 0 0 0 0 0 0 0
1 1 1 1 2 3 4 3 4 6 6 3 3 3 2 3 2 1 1 1 1 1 1 1 0 1 0 0 0 0 0 0 0 0 0 0 0 0 0 0 0 0 0
1 1 1 1 2 3 4 4 4 6 6 3 3 2 3 2 1 1 1 1 1 1 1 1 1 1 0 0 0 0 0 0 0 0 0 0 0 0 0 0 0 0 0
1 1 1 1 2 3 2 4 5 7 5 3 3 2 2 0 0 0 0 0 0 1 1 1 1 1 0 0 0 0 0 0 0 0 0 0 0 0 0 0 0 0 0
1 1 1 1 2 3 1 3 5 6 3 3 3 3 1 0 0 0 0 0 0 0 0 1 1 0 0 0 0 0 0 0 0 0 0 0 0 0 0 0 0 -0 0
1 1 2 2 2 4 0 2 3 3 3 2 2 1 1 1 0 0 0 0 0 0 0 0 0 0 0 0 0 0 0 0 0 0 0 0 0 0 0 0 0 0 0
1 2 2 2 3 2 0 1 1 2 2 2 1 0 1 1 0 0 0 0 0 0 0 0 0 0 0 0 0 0 0 0 0 0 0 0 0 0 0 0 0 0 0
1 2 1 2 4 2 0 1 1 1 1 1 1 0 0 0 0 0 0 0 0 0 0 0 0 0 0 0 0 0 0 0 0 0 0 0 0 0 0 0 0 0 0
Wind_Speed_500mb
37 36 33 27 25 22 23 22 24 29 30 31 32 34 35 35 33 32 31 44 46 42 40 39 39 35 31 30 29 28 27 26 21 25 29 32 32 30 31 29 32 33 34
42 37 33 30 27 27 24 23 25 27 30 29 32 36 34 34 33 32 31 35 41 37 36 39 43 41 34 32 31 32 24 27 26 25 28 33 32 28 28 28 31 35 33
48 44 31 31 28 26 32 30 33 30 30 28 32 33 35 33 34 34 32 31 33 35 25 30 42 45 41 37 39 37 30 27 30 26 30 32 33 30 31 30 27 33 34
56 49 41 35 30 32 29 25 28 25 26 25 32 33 32 31 34 33 30 30 26 28 35 28 31 36 36 29 34 33 35 32 30 31 31 33 35 33 34 34 29 31 34
61 57 57 44 48 36 38 22 38 37 29 26 28 33 35 32 32 30 31 32 32 31 28 31 30 35 38 33 31 33 34 33 31 31 31 34 36 36 34 38 33 32 32
58 62 55 54 57 45 38 26 52 33 30 27 27 31 37 34 31 33 31 32 34 36 33 33 39 38 32 33 32 36 36 36 34 35 33 34 36 36 35 37 36 34 35
65 61 60 64 56 55 55 40 53 45 39 30 24 28 34 42 37 43 30 33 32 35 37 37 42 33 37 36 33 37 39 41 39 37 38 34 36 38 35 39 38 36 34
50 62 68 61 59 49 60 57 62 42 38 29 27 25 30 37 40 37 24 30 33 29 31 33 28 32 28 28 32 30 33 39 43 40 40 43 38 39 38 37 40 38 37
40 56 68 66 64 64 69 68 56 53 38 29 31 29 19 28 21 25 26 29 25 24 25 28 33 26 29 29 34 37 39 34 42 43 41 43 39 40 40 39 37 38 38
49 61 56 67 67 67 73 60 54 63 46 36 32 40 42 30 16 20 17 24 26 29 30 26 25 24 28 26 26 35 38 31 39 45 43 42 38 41 41 41 38 36 37
53 55 64 72 77 78 66 57 54 53 54 43 39 33 28 33 39 33 37 30 24 24 23 25 16 23 29 23 28 33 32 32 37 45 45 40 39 41 43 41 38 37 37
76 78 87 74 76 77 70 71 59 61 56 47 38 38 30 25 26 30 32 34 30 26 23 18 20 20 23 29 19 33 35 28 33 43 46 43 39 41 46 40 38 38 40
76 84 95 100 95 92 80 73 62 60 61 53 54 41 37 34 31 36 27 31 25 19 19 20 16 21 23 23 27 30 31 32 29 38 46 44 39 42 47 42 37 38 40
64 71 87 85 97 92 84 81 69 67 65 54 58 54 42 28 29 33 34 28 25 32 27 27 24 18 22 24 29 35 31 22 25 33 42 46 48 42 48 43 38 37 36
69 71 72 76 77 86 78 73 72 70 62 58 55 51 45 32 36 34 26 26 28 32 27 25 19 22 20 28 28 16 13 18 23 29 33 31 38 43 45 42 41 38 33
59 68 65 74 81 73 76 67 63 62 64 57 48 45 38 32 36 34 28 25 26 27 31 16 17 18 21 22 26 22 24 19 22 26 40 36 36 40 41 43 41 37 34
84 80 77 66 83 72 64 64 64 59 57 49 47 45 40 38 38 31 30 25 26 27 30 16 12 24 27 20 22 17 19 18 18 25 34 43 41 42 39 41 40 36 39
76 82 79 77 73 68 62 70 71 53 49 53 49 45 38 35 43 39 30 27 26 29 28 19 20 20 18 19 21 21 19 16 18 21 28 36 41 43 38 38 36 34 35
71 73 76 67 75 72 69 71 66 55 51 51 51 44 36 43 44 33 34 25 32 32 31 28 21 21 20 18 23 19 19 21 22 24 30 34 39 41 39 35 33 33 33
70 69 72 67 73 67 66 67 61 58 56 49 48 42 37 46 41 34 28 31 27 32 35 30 23 19 21 21 20 16 18 21 24 19 31 37 37 38 38 36 34 36 36
70 69 68 59 75 72 70 66 64 64 57 54 49 39 39 39 37 31 27 30 35 35 31 34 30 27 25 24 24 19 20 23 21 21 26 35 34 37 39 39 36 38 38
68 69 73 71 78 78 74 73 71 67 63 53 48 38 40 46 45 42 42 35 38 36 32 32 33 28 27 30 22 26 26 24 21 27 28 31 36 32 35 37 39 37 35
70 75 73 78 79 79 76 76 74 68 63 53 47 44 39 33 41 38 41 43 39 35 34 28 28 30 31 33 30 32 28 23 18 25 31 35 34 35 30 35 40 40 37
75 75 79 81 79 78 76 81 80 60 53 49 46 43 38 36 32 27 23 33 34 32 38 35 35 33 38 38 34 29 30 25 22 23 27 33 36 35 35 31 40 43 39
77 78 84 84 82 83 78 83 79 57 52 52 40 36 37 32 30 34 27 23 26 32 31 30 34 31 30 31 31 30 29 29 20 26 30 28 40 37 32 31 35 36 40
80 83 88 88 82 86 84 78 74 51 53 44 40 40 42 33 30 27 30 27 29 26 29 27 26 30 27 29 30 25 30 33 27 14 32 24 34 40 27 34 38 43 42
Wind_Direction_500mb
229 232 234 232 234 251 253 258 255 253 263 261 260 261 260 254 251 253 252 269 272 275 252 252 243 245 257 263 260 259 260 264 270 243 235 232 236 247 238 235 225 225 225
226 229 244 236 235 243 248 255 264 259 266 265 267 266 259 260 258 251 256 267 278 285 257 250 251 245 257 261 260 250 258 259 255 256 237 234 235 240 231 226 226 224 225
223 231 236 242 239 243 245 254 254 260 267 268 270 263 266 266 259 251 250 252 266 278 288 268 257 251 253 267 263 250 256 253 260 251 236 232 231 234 225 218 227 229 228
250 244 236 237 239 238 241 282 300 258 261 270 277 274 273 268 261 257 251 254 252 261 277 282 267 256 261 264 262 256 250 253 257 245 239 229 231 231 225 219 232 228 225
248 250 252 244 245 246 247 258 277 258 249 258 268 273 271 265 265 259 253 256 259 247 267 283 274 264 266 268 259 255 254 256 249 240 240 229 228 229 224 219 231 226 225
245 245 244 243 252 247 236 257 263 257 254 250 260 270 267 265 264 257 254 255 256 263 263 260 266 274 275 273 273 261 258 256 250 238 236 231 227 228 224 220 226 224 227
245 252 255 248 253 242 244 242 256 259 255 258 258 263 268 267 265 246 246 255 260 264 262 258 256 268 273 280 274 280 256 250 247 236 234 231 225 226 224 222 223 224 225
262 253 252 244 249 243 239 238 250 256 258 248 243 258 269 264 250 255 227 239 255 258 265 275 269 263 254 271 281 265 267 246 242 230 235 233 231 223 223 222 223 224 225
282 277 270 260 255 245 243 246 243 252 235 240 241 230 259 267 291 224 232 233 241 252 258 255 261 255 257 255 251 273 262 241 234 232 235 233 232 219 222 222 223 225 226
280 290 294 267 254 245 242 239 244 253 245 227 235 239 238 255 277 260 233 233 230 245 241 255 267 258 256 256 257 251 259 241 229 236 239 231 231 220 218 222 222 223 225
261 266 286 288 265 244 240 222 243 254 247 235 223 238 243 246 249 266 275 236 225 237 247 264 255 262 263 264 253 260 263 250 235 235 234 226 226 223 216 219 220 221 222
264 255 276 277 274 252 235 241 239 255 246 242 224 232 230 234 239 243 254 257 250 234 222 244 268 270 260 274 255 255 255 257 243 233 229 225 228 227 215 215 217 219 222
250 248 250 258 264 251 241 236 244 245 249 236 237 227 227 231 247 252 247 264 264 242 253 269 257 262 260 260 259 264 268 250 240 230 226 226 230 219 214 210 215 219 224
228 247 245 246 256 250 240 238 243 251 238 240 233 230 236 236 243 247 234 253 261 254 256 234 234 251 259 256 262 264 271 252 233 223 226 231 227 222 214 211 213 223 226
231 242 246 245 251 242 233 233 239 238 233 243 231 232 231 230 236 228 232 248 257 277 246 221 226 227 232 260 262 267 250 259 231 222 220 222 216 211 210 214 217 225 228
232 238 242 246 240 234 224 231 230 229 231 234 220 226 229 218 228 224 227 236 248 261 271 207 212 211 251 239 258 245 236 245 244 232 221 216 209 206 210 213 218 225 224
242 235 237 231 236 228 225 225 216 217 225 218 218 222 230 209 216 225 227 233 242 246 251 238 194 248 256 243 243 236 233 241 245 229 220 218 216 210 211 213 217 223 221
251 245 242 241 233 225 218 219 218 212 216 211 215 210 210 210 220 210 223 225 235 241 239 254 227 249 250 249 241 247 225 236 231 231 220 214 211 209 214 217 218 225 222
251 247 236 226 227 223 216 218 213 203 209 212 212 211 205 210 222 215 229 227 237 237 240 244 244 237 237 238 248 243 237 224 226 228 221 212 209 208 212 219 223 224 217
246 241 240 224 227 221 212 208 203 197 206 209 210 207 204 216 218 218 221 217 229 229 233 228 232 223 245 252 241 240 230 223 222 215 209 205 207 210 215 220 220 211 208
247 239 233 222 224 216 209 205 197 195 202 202 206 202 201 213 213 217 220 227 226 229 234 227 239 237 234 239 229 239 217 223 222 212 202 209 208 215 219 219 208 201 200
242 235 225 221 220 213 208 205 196 192 200 195 199 193 206 216 218 218 213 216 219 222 225 234 227 230 245 245 220 226 225 206 211 211 201 207 209 210 218 215 206 198 197
239 231 220 219 215 208 205 203 194 191 193 191 192 195 201 212 221 217 218 221 227 231 227 228 236 245 241 243 232 213 221 200 220 216 206 210 210 214 209 206 198 200 210
235 224 214 215 206 201 200 197 192 189 187 185 194 196 193 210 213 198 212 221 225 236 237 236 251 255 250 243 242 228 224 214 220 214 213 206 207 212 216 217 212 215 208
226 215 211 206 196 192 197 197 187 183 179 185 186 189 191 200 209 194 202 216 218 225 239 244 257 256 254 240 227 208 205 210 197 216 205 216 213 215 207 213 203 197 206
216 209 203 194 187 190 192 192 176 175 175 177 181 191 190 196 215 204 196 215 227 231 255 257 249 254 238 211 211 219 217 208 202 185 200 198 213 212 211 218 214 208 209
Wind_Speed_850mb
37 36 33 27 25 22 23 22 24 29 30 31 32 34 35 35 33 32 31 44 46 42 40 39 39 35 31 30 29 28 27 26 21 25 29 32 32 30 31 29 32 33 34
42 37 33 30 27 27 24 23 25 27 30 29 32 36 34 34 33 32 31 35 41 37 36 39 43 41 34 32 31 32 24 27 26 25 28 33 32 28 28 28 31 35 33
48 44 31 31 28 26 32 30 33 30 30 28 32 33 35 33 34 34 32 31 33 35 25 30 42 45 41 37 39 37 30 27 30 26 30 32 33 30 31 30 27 33 34
56 49 41 35 30 32 29 25 28 25 26 25 32 33 32 31 34 33 30 30 26 28 35 28 31 36 36 29 34 33 35 32 30 31 31 33 35 33 34 34 29 31 34
61 57 57 44 48 36 38 22 38 37 29 26 28 33 35 32 32 30 31 32 32 31 28 31 30 35 38 33 31 33 34 33 31 31 31 34 36 36 34 38 33 32 32
58 62 55 54 57 45 38 26 52 33 30 27 27 31 37 34 31 33 31 32 34 36 33 33 39 38 32 33 32 36 36 36 34 35 33 34 36 36 35 37 36 34 35
65 61 60 64 56 55 55 40 53 45 39 30 24 28 34 42 37 43 30 33 32 35 37 37 42 33 37 36 33 37 39 41 39 37 38 34 36 38 35 39 38 36 34
50 62 68 61 59 49 60 57 62 42 38 29 27 25 30 37 40 37 24 30 33 29 31 33 28 32 28 28 32 30 33 39 43 40 40 43 38 39 38 37 40 38 37
40 56 68 66 64 64 69 68 56 53 38 29 31 29 19 28 21 25 26 29 25 24 25 28 33 26 29 29 34 37 39 34 42 43 41 43 39 40 40 39 37 38 38
49 61 56 67 67 67 73 60 54 63 46 36 32 40 42 30 16 20 17 24 26 29 30 26 25 24 28 26 26 35 38 31 39 45 43 42 38 41 41 41 38 36 37
53 55 64 72 77 78 66 57 54 53 54 43 39 33 28 33 39 33 37 30 24 24 23 25 16 23 29 23 28 33 32 32 37 45 45 40 39 41 43 41 38 37 37
76 78 87 74 76 77 70 71 59 61 56 47 38 38 30 25 26 30 32 34 30 26 23 18 20 20 23 29 19 33 35 28 33 43 46 43 39 41 46 40 38 38 40
76 84 95 100 95 92 80 73 62 60 61 53 54 41 37 34 31 36 27 31 25 19 19 20 16 21 23 23 27 30 31 32 29 38 46 44 39 42 47 42 37 38 40
64 71 87 85 97 92 84 81 69 67 65 54 58 54 42 28 29 33 34 28 25 32 27 27 24 18 22 24 29 35 31 22 25 33 42 46 48 42 48 43 38 37 36
69 71 72 76 77 86 78 73 72 70 62 58 55 51 45 32 36 34 26 26 28 32 27 25 19 22 20 28 28 16 13 18 23 29 33 31 38 43 45 42 41 38 33
59 68 65 74 81 73 76 67 63 62 64 57 48 45 38 32 36 34 28 25 26 27 31 16 17 18 21 22 26 22 24 19 22 26 40 36 36 40 41 43 41 37 34
84 80 77 66 83 72 64 64 64 59 57 49 47 45 40 38 38 31 30 25 26 27 30 16 12 24 27 20 22 17 19 18 18 25 34 43 41 42 39 41 40 36 39
76 82 79 77 73 68 62 70 71 53 49 53 49 45 38 35 43 39 30 27 26 29 28 19 20 20 18 19 21 21 19 16 18 21 28 36 41 43 38 38 36 34 35
71 73 76 67 75 72 69 71 66 55 51 51 51 44 36 43 44 33 34 25 32 32 31 28 21 21 20 18 23 19 19 21 22 24 30 34 39 41 39 35 33 33 33
70 69 72 67 73 67 66 67 61 58 56 49 48 42 37 46 41 34 28 31 27 32 35 30 23 19 21 21 20 16 18 21 24 19 31 37 37 38 38 36 34 36 36
70 69 68 59 75 72 70 66 64 64 57 54 49 39 39 39 37 31 27 30 35 35 31 34 30 27 25 24 24 19 20 23 21 21 26 35 34 37 39 39 36 38 38
68 69 73 71 78 78 74 73 71 67 63 53 48 38 40 46 45 42 42 35 38 36 32 32 33 28 27 30 22 26 26 24 21 27 28 31 36 32 35 37 39 37 35
70 75 73 78 79 79 76 76 74 68 63 53 47 44 39 33 41 38 41 43 39 35 34 28 28 30 31 33 30 32 28 23 18 25 31 35 34 35 30 35 40 40 37
75 75 79 81 79 78 76 81 80 60 53 49 46 43 38 36 32 27 23 33 34 32 38 35 35 33 38 38 34 29 30 25 22 23 27 33 36 35 35 31 40 43 39
77 78 84 84 82 83 78 83 79 57 52 52 40 36 37 32 30 34 27 23 26 32 31 30 34 31 30 31 31 30 29 29 20 26 30 28 40 37 32 31 35 36 40
80 83 88 88 82 86 84 78 74 51 53 44 40 40 42 33 30 27 30 27 29 26 29 27 26 30 27 29 30 25 30 33 27 14 32 24 34 40 27 34 38 43 42
Wind_Direction_850mb
229 232 234 232 234 251 253 258 255 253 263 261 260 261 260 254 251 253 252 269 272 275 252 252 243 245 257 263 260 259 260 264 270 243 235 232 236 247 238 235 225 225 225
226 229 244 236 235 243 248 255 264 259 266 265 267 266 259 260 258 251 256 267 278 285 257 250 251 245 257 261 260 250 258 259 255 256 237 234 235 240 231 226 226 224 225
223 231 236 242 239 243 245 254 254 260 267 268 270 263 266 266 259 251 250 252 266 278 288 268 257 251 253 267 263 250 256 253 260 251 236 232 231 234 225 218 227 229 228
250 244 236 237 239 238 241 282 300 258 261 270 277 274 273 268 261 257 251 254 252 261 277 282 267 256 261 264 262 256 250 253 257 245 239 229 231 231 225 219 232 228 225
248 250 252 244 245 246 247 258 277 258 249 258 268 273 271 265 265 259 253 256 259 247 267 283 274 264 266 268 259 255 254 256 249 240 240 229 228 229 224 219 231 226 225
245 245 244 243 252 247 236 257 263 257 254 250 260 270 267 265 264 257 254 255 256 263 263 260 266 274 275 273 273 261 258 256 250 238 236 231 227 228 224 220 226 224 227
245 252 255 248 253 242 244 242 256 259 255 258 258 263 268 267 265 246 246 255 260 264 262 258 256 268 273 280 274 280 256 250 247 236 234 231 225 226 224 222 223 224 225
262 253 252 244 249 243 239 238 250 256 258 248 243 258 269 264 250 255 227 239 255 258 265 275 269 263 254 271 281 265 267 246 242 230 235 233 231 223 223 222 223 224 225
282 277 270 260 255 245 243 246 243 252 235 240 241 230 259 267 291 224 232 233 241 252 258 255 261 255 257 255 251 273 262 241 234 232 235 233 232 219 222 222 223 225 226
280 290 294 267 254 245 242 239 244 253 245 227 235 239 238 255 277 260 233 233 230 245 241 255 267 258 256 256 257 251 259 241 229 236 239 231 231 220 218 222 222 223 225
261 266 286 288 265 244 240 222 243 254 247 235 223 238 243 246 249 266 275 236 225 237 247 264 255 262 263 264 253 260 263 250 235 235 234 226 226 223 216 219 220 221 222
264 255 276 277 274 252 235 241 239 255 246 242 224 232 230 234 239 243 254 257 250 234 222 244 268 270 260 274 255 255 255 257 243 233 229 225 228 227 215 215 217 219 222
250 248 250 258 264 251 241 236 244 245 249 236 237 227 227 231 247 252 247 264 264 242 253 269 257 262 260 260 259 264 268 250 240 230 226 226 230 219 214 210 215 219 224
228 247 245 246 256 250 240 238 243 251 238 240 233 230 236 236 243 247 234 253 261 254 256 234 234 251 259 256 262 264 271 252 233 223 226 231 227 222 214 211 213 223 226
231 242 246 245 251 242 233 233 239 238 233 243 231 232 231 230 236 228 232 248 257 277 246 221 226 227 232 260 262 267 250 259 231 222 220 222 216 211 210 214 217 225 228
232 238 242 246 240 234 224 231 230 229 231 234 220 226 229 218 228 224 227 236 248 261 271 207 212 211 251 239 258 245 236 245 244 232 221 216 209 206 210 213 218 225 224
242 235 237 231 236 228 225 225 216 217 225 218 218 222 230 209 216 225 227 233 242 246 251 238 194 248 256 243 243 236 233 241 245 229 220 218 216 210 211 213 217 223 221
251 245 242 241 233 225 218 219 218 212 216 211 215 210 210 210 220 210 223 225 235 241 239 254 227 249 250 249 241 247 225 236 231 231 220 214 211 209 214 217 218 225 222
251 247 236 226 227 223 216 218 213 203 209 212 212 211 205 210 222 215 229 227 237 237 240 244 244 237 237 238 248 243 237 224 226 228 221 212 209 208 212 219 223 224 217
246 241 240 224 227 221 212 208 203 197 206 209 210 207 204 216 218 218 221 217 229 229 233 228 232 223 245 252 241 240 230 223 222 215 209 205 207 210 215 220 220 211 208
247 239 233 222 224 216 209 205 197 195 202 202 206 202 201 213 213 217 220 227 226 229 234 227 239 237 234 239 229 239 217 223 222 212 202 209 208 215 219 219 208 201 200
242 235 225 221 220 213 208 205 196 192 200 195 199 193 206 216 218 218 213 216 219 222 225 234 227 230 245 245 220 226 225 206 211 211 201 207 209 210 218 215 206 198 197
239 231 220 219 215 208 205 203 194 191 193 191 192 195 201 212 221 217 218 221 227 231 227 228 236 245 241 243 232 213 221 200 220 216 206 210 210 214 209 206 198 200 210
235 224 214 215 206 201 200 197 192 189 187 185 194 196 193 210 213 198 212 221 225 236 237 236 251 255 250 243 242 228 224 214 220 214 213 206 207 212 216 217 212 215 208
226 215 211 206 196 192 197 197 187 183 179 185 186 189 191 200 209 194 202 216 218 225 239 244 257 256 254 240 227 208 205 210 197 216 205 216 213 215 207 213 203 197 206
216 209 203 194 187 190 192 192 176 175 175 177 181 191 190 196 215 204 196 215 227 231 255 257 249 254 238 211 211 219 217 208 202 185 200 198 213 212 211 218 214 208 209